User: anonymous   Login
Location: Bad Rothenbrunn
(47.2167°N, 11.2167°E)
Time: 06:35:52
(UTC+00:00)
Language:

Meteor 1-23 Rocket - Orbit

View from above orbital plane
View from above orbital plane
View from above satellite
View from above satellite

Ground track
Ground track

The orbit data is extracted from the following two-line orbital elements,

1 08520U 75124B   21134.29538808  .00000178  00000-0  95187-4 0  9998
2 08520  81.2911 228.2484 0033047 236.6127 123.1880 14.09004908331873
Epoch (UTC): 14 May 2021 07:05:21
Eccentricity: 0.0033047
inclination: 81.2911°
perigee height: 839 km
apogee height: 887 km
right ascension of ascending node: 228.2484°
argument of perigee: 236.6127°
revolutions per day: 14.09004908
mean anomaly at epoch: 123.1880°
orbit number at epoch: 33187

The dashed part of the orbit path shows where the satellite is in the earth's shadow,  

DLR